Year,Month,Day,Hour,Minute,Value (Times are PST for temperature in C)
2016,08,12,00,00,18.40
2016,08,12,00,01,18.40
2016,08,12,00,02,18.40
2016,08,12,00,03,18.40
2016,08,12,00,04,18.30
2016,08,12,00,05,18.30
2016,08,12,00,06,18.30
2016,08,12,00,07,18.30
2016,08,12,00,08,18.30
2016,08,12,00,09,18.20
2016,08,12,00,10,18.20
2016,08,12,00,11,18.20
2016,08,12,00,12,18.20
2016,08,12,00,13,18.20
2016,08,12,00,14,18.20
2016,08,12,00,15,18.20
2016,08,12,00,16,18.20
2016,08,12,00,17,18.20
2016,08,12,00,18,18.20
2016,08,12,00,19,18.10
2016,08,12,00,20,18.10
2016,08,12,00,21,18.00
2016,08,12,00,22,17.90
2016,08,12,00,23,17.90
2016,08,12,00,24,17.90
2016,08,12,00,25,17.90
2016,08,12,00,26,17.90
2016,08,12,00,27,17.80
2016,08,12,00,28,17.80
2016,08,12,00,29,17.70
2016,08,12,00,30,17.70
2016,08,12,00,31,17.60
2016,08,12,00,32,17.50
2016,08,12,00,33,17.40
2016,08,12,00,34,17.40
2016,08,12,00,35,17.30
2016,08,12,00,36,17.30
2016,08,12,00,37,17.20
2016,08,12,00,38,17.20
2016,08,12,00,39,17.10
2016,08,12,00,40,17.10
2016,08,12,00,41,17.00
2016,08,12,00,42,17.00
2016,08,12,00,43,17.00
2016,08,12,00,44,16.90
2016,08,12,00,45,16.90
2016,08,12,00,46,16.90
2016,08,12,00,47,16.80
2016,08,12,00,48,16.80
2016,08,12,00,49,16.80
2016,08,12,00,50,16.70
2016,08,12,00,51,16.70
2016,08,12,00,52,16.70
2016,08,12,00,53,16.70
2016,08,12,00,54,16.70
2016,08,12,00,55,16.70
2016,08,12,00,56,16.70
2016,08,12,00,57,16.70
2016,08,12,00,58,16.70
2016,08,12,00,59,16.70
2016,08,12,01,00,16.70
2016,08,12,01,01,16.70
2016,08,12,01,02,16.70
2016,08,12,01,03,16.70
2016,08,12,01,04,16.70
2016,08,12,01,05,16.70
2016,08,12,01,06,16.70
2016,08,12,01,07,16.70
2016,08,12,01,08,16.70
2016,08,12,01,09,16.70
2016,08,12,01,10,16.70
2016,08,12,01,11,16.70
2016,08,12,01,12,16.70
2016,08,12,01,13,16.70
2016,08,12,01,14,16.70
2016,08,12,01,15,16.70
2016,08,12,01,16,16.70
2016,08,12,01,17,16.70
2016,08,12,01,18,16.70
2016,08,12,01,19,16.70
2016,08,12,01,20,16.70
2016,08,12,01,21,16.70
2016,08,12,01,22,16.70
2016,08,12,01,23,16.70
2016,08,12,01,24,16.70
2016,08,12,01,25,16.70
2016,08,12,01,26,16.70
2016,08,12,01,27,16.70
2016,08,12,01,28,16.70
2016,08,12,01,29,16.80
2016,08,12,01,30,16.80
2016,08,12,01,31,16.80
2016,08,12,01,32,16.80
2016,08,12,01,33,16.80
2016,08,12,01,34,16.80
2016,08,12,01,35,16.80
2016,08,12,01,36,16.90
2016,08,12,01,37,16.90
2016,08,12,01,38,16.90
2016,08,12,01,39,16.90
2016,08,12,01,40,16.90
2016,08,12,01,41,17.00
2016,08,12,01,42,17.00
2016,08,12,01,43,17.00
2016,08,12,01,44,17.00
2016,08,12,01,45,17.00
2016,08,12,01,46,17.00
2016,08,12,01,47,17.00
2016,08,12,01,48,17.00
2016,08,12,01,49,17.00
2016,08,12,01,50,17.00
2016,08,12,01,51,17.00
2016,08,12,01,52,17.00
2016,08,12,01,53,16.90
2016,08,12,01,54,16.90
2016,08,12,01,55,16.90
2016,08,12,01,56,16.90
2016,08,12,01,57,16.90
2016,08,12,01,58,16.90
2016,08,12,01,59,16.90
2016,08,12,02,00,16.90
2016,08,12,02,01,17.00
2016,08,12,02,02,17.00
2016,08,12,02,03,17.00
2016,08,12,02,04,16.90
2016,08,12,02,05,17.00
2016,08,12,02,06,17.00
2016,08,12,02,07,17.00
2016,08,12,02,08,17.00
2016,08,12,02,09,17.00
2016,08,12,02,10,17.00
2016,08,12,02,11,17.00
2016,08,12,02,12,17.00
2016,08,12,02,13,17.00
2016,08,12,02,14,17.10
2016,08,12,02,15,17.10
2016,08,12,02,16,17.10
2016,08,12,02,17,17.10
2016,08,12,02,18,17.10
2016,08,12,02,19,17.10
2016,08,12,02,20,17.10
2016,08,12,02,21,17.10
2016,08,12,02,22,17.10
2016,08,12,02,23,17.10
2016,08,12,02,24,17.10
2016,08,12,02,25,17.10
2016,08,12,02,26,17.20
2016,08,12,02,27,17.20
2016,08,12,02,28,17.20
2016,08,12,02,29,17.20
2016,08,12,02,30,17.20
2016,08,12,02,31,17.20
2016,08,12,02,32,17.20
2016,08,12,02,33,17.20
2016,08,12,02,34,17.20
2016,08,12,02,35,17.20
2016,08,12,02,36,17.20
2016,08,12,02,37,17.20
2016,08,12,02,38,17.20
2016,08,12,02,39,17.20
2016,08,12,02,40,17.20
2016,08,12,02,41,17.30
2016,08,12,02,42,17.30
2016,08,12,02,43,17.30
2016,08,12,02,44,17.30
2016,08,12,02,45,17.30
2016,08,12,02,46,17.30
2016,08,12,02,47,17.30
2016,08,12,02,48,17.30
2016,08,12,02,49,17.30
2016,08,12,02,50,17.30
2016,08,12,02,51,17.30
2016,08,12,02,52,17.30
2016,08,12,02,53,17.30
2016,08,12,02,54,17.30
2016,08,12,02,55,17.20
2016,08,12,02,56,17.20
2016,08,12,02,57,17.20
2016,08,12,02,58,17.20
2016,08,12,02,59,17.10
2016,08,12,03,00,17.10
2016,08,12,03,01,17.00
2016,08,12,03,02,17.00
2016,08,12,03,03,16.90
2016,08,12,03,04,16.80
2016,08,12,03,05,16.70
2016,08,12,03,06,16.70
2016,08,12,03,07,16.60
2016,08,12,03,08,16.60
2016,08,12,03,09,16.50
2016,08,12,03,10,16.40
2016,08,12,03,11,16.40
2016,08,12,03,12,16.40
2016,08,12,03,13,16.30
2016,08,12,03,14,16.30
2016,08,12,03,15,16.30
2016,08,12,03,16,16.20
2016,08,12,03,17,16.20
2016,08,12,03,18,16.20
2016,08,12,03,19,16.20
2016,08,12,03,20,16.20
2016,08,12,03,21,16.10
2016,08,12,03,22,16.10
2016,08,12,03,23,16.10
2016,08,12,03,24,16.10
2016,08,12,03,25,16.10
2016,08,12,03,26,16.10
2016,08,12,03,27,16.10
2016,08,12,03,28,16.10
2016,08,12,03,29,16.10
2016,08,12,03,30,16.10
2016,08,12,03,31,16.10
2016,08,12,03,32,16.10
2016,08,12,03,33,16.10
2016,08,12,03,34,16.10
2016,08,12,03,35,16.10
2016,08,12,03,36,16.10
2016,08,12,03,37,16.10
2016,08,12,03,38,16.10
2016,08,12,03,39,16.10
2016,08,12,03,40,16.10
2016,08,12,03,41,16.10
2016,08,12,03,42,16.10
2016,08,12,03,43,16.10
2016,08,12,03,44,16.10
2016,08,12,03,45,16.10
2016,08,12,03,46,16.10
2016,08,12,03,47,16.10
2016,08,12,03,48,16.10
2016,08,12,03,49,16.10
2016,08,12,03,50,16.10
2016,08,12,03,51,16.00
2016,08,12,03,52,15.90
2016,08,12,03,53,15.90
2016,08,12,03,54,15.90
2016,08,12,03,55,15.90
2016,08,12,03,56,15.90
2016,08,12,03,57,15.90
2016,08,12,03,58,15.90
2016,08,12,03,59,15.90
2016,08,12,04,00,15.90
2016,08,12,04,01,15.90
2016,08,12,04,02,15.90
2016,08,12,04,03,15.90
2016,08,12,04,04,15.90
2016,08,12,04,05,15.90
2016,08,12,04,06,15.90
2016,08,12,04,07,15.80
2016,08,12,04,08,15.80
2016,08,12,04,09,15.80
2016,08,12,04,10,15.80
2016,08,12,04,11,15.80
2016,08,12,04,12,15.80
2016,08,12,04,13,15.80
2016,08,12,04,14,15.80
2016,08,12,04,15,15.80
2016,08,12,04,16,15.80
2016,08,12,04,17,15.80
2016,08,12,04,18,15.70
2016,08,12,04,19,15.70
2016,08,12,04,20,15.70
2016,08,12,04,21,15.60
2016,08,12,04,22,15.60
2016,08,12,04,23,15.60
2016,08,12,04,24,15.60
2016,08,12,04,25,15.50
2016,08,12,04,26,15.50
2016,08,12,04,27,15.50
2016,08,12,04,28,15.50
2016,08,12,04,29,15.50
2016,08,12,04,30,15.40
2016,08,12,04,31,15.40
2016,08,12,04,32,15.40
2016,08,12,04,33,15.40
2016,08,12,04,34,15.40
2016,08,12,04,35,15.30
2016,08,12,04,36,15.30
2016,08,12,04,37,15.30
2016,08,12,04,38,15.30
2016,08,12,04,39,15.30
2016,08,12,04,40,15.30
2016,08,12,04,41,15.30
2016,08,12,04,42,15.30
2016,08,12,04,43,15.30
2016,08,12,04,44,15.30
2016,08,12,04,45,15.30
2016,08,12,04,46,15.30
2016,08,12,04,47,15.30
2016,08,12,04,48,15.30
2016,08,12,04,49,15.30
2016,08,12,04,50,15.30
2016,08,12,04,51,15.30
2016,08,12,04,52,15.20
2016,08,12,04,53,15.20
2016,08,12,04,54,15.20
2016,08,12,04,55,15.20
2016,08,12,04,56,15.20
2016,08,12,04,57,15.20
2016,08,12,04,58,15.20
2016,08,12,04,59,15.20
2016,08,12,05,00,15.20
2016,08,12,05,01,15.20
2016,08,12,05,02,15.20
2016,08,12,05,03,15.20
2016,08,12,05,04,15.30
2016,08,12,05,05,15.30
2016,08,12,05,06,15.30
2016,08,12,05,07,15.30
2016,08,12,05,08,15.30
2016,08,12,05,09,15.30
2016,08,12,05,10,15.30
2016,08,12,05,11,15.30
2016,08,12,05,12,15.30
2016,08,12,05,13,15.30
2016,08,12,05,14,15.30
2016,08,12,05,15,15.30
2016,08,12,05,16,15.30
2016,08,12,05,17,15.30
2016,08,12,05,18,15.30
2016,08,12,05,19,15.40
2016,08,12,05,20,15.40
2016,08,12,05,21,15.40
2016,08,12,05,22,15.40
2016,08,12,05,23,15.40
2016,08,12,05,24,15.40
2016,08,12,05,25,15.40
2016,08,12,05,26,15.30
2016,08,12,05,27,15.30
2016,08,12,05,28,15.30
2016,08,12,05,29,15.30
2016,08,12,05,30,15.30
2016,08,12,05,31,15.30
2016,08,12,05,32,15.30
2016,08,12,05,33,15.30
2016,08,12,05,34,15.30
2016,08,12,05,35,15.30
2016,08,12,05,36,15.30
2016,08,12,05,37,15.40
2016,08,12,05,38,15.40
2016,08,12,05,39,15.40
2016,08,12,05,40,15.40
2016,08,12,05,41,15.40
2016,08,12,05,42,15.40
2016,08,12,05,43,15.50
2016,08,12,05,44,15.50
2016,08,12,05,45,15.50
2016,08,12,05,46,15.50
2016,08,12,05,47,15.60
2016,08,12,05,48,15.60
2016,08,12,05,49,15.60
2016,08,12,05,50,15.60
2016,08,12,05,51,15.70
2016,08,12,05,52,15.70
2016,08,12,05,53,15.70
2016,08,12,05,54,15.70
2016,08,12,05,55,15.70
2016,08,12,05,56,15.70
2016,08,12,05,57,15.80
2016,08,12,05,58,15.80
2016,08,12,05,59,15.80
2016,08,12,06,00,15.80
2016,08,12,06,01,15.80
2016,08,12,06,02,15.80
2016,08,12,06,03,15.80
2016,08,12,06,04,15.80
2016,08,12,06,05,15.80
2016,08,12,06,06,15.80
2016,08,12,06,07,15.80
2016,08,12,06,08,15.80
2016,08,12,06,09,15.80
2016,08,12,06,10,15.80
2016,08,12,06,11,15.80
2016,08,12,06,12,15.80
2016,08,12,06,13,15.80
2016,08,12,06,14,15.80
2016,08,12,06,15,15.80
2016,08,12,06,16,15.80
2016,08,12,06,17,15.80
2016,08,12,06,18,15.80
2016,08,12,06,19,15.80
2016,08,12,06,20,15.80
2016,08,12,06,21,15.80
2016,08,12,06,22,15.80
2016,08,12,06,23,15.80
2016,08,12,06,24,15.80
2016,08,12,06,25,15.80
2016,08,12,06,26,15.80
2016,08,12,06,27,15.70
2016,08,12,06,28,15.70
2016,08,12,06,29,15.70
2016,08,12,06,30,15.70
2016,08,12,06,31,15.70
2016,08,12,06,32,15.70
2016,08,12,06,33,15.70
2016,08,12,06,34,15.70
2016,08,12,06,35,15.80
2016,08,12,06,36,15.80
2016,08,12,06,37,15.80
2016,08,12,06,38,15.80
2016,08,12,06,39,15.80
2016,08,12,06,40,15.90
2016,08,12,06,41,15.90
2016,08,12,06,42,16.00
2016,08,12,06,43,16.10
2016,08,12,06,44,16.10
2016,08,12,06,45,16.10
2016,08,12,06,46,16.20
2016,08,12,06,47,16.20
2016,08,12,06,48,16.30
2016,08,12,06,49,16.30
2016,08,12,06,50,16.40
2016,08,12,06,51,16.40
2016,08,12,06,52,16.40
2016,08,12,06,53,16.50
2016,08,12,06,54,16.60
2016,08,12,06,55,16.60
2016,08,12,06,56,16.70
2016,08,12,06,57,16.70
2016,08,12,06,58,16.70
2016,08,12,06,59,16.70
2016,08,12,07,00,16.80
2016,08,12,07,01,16.80
2016,08,12,07,02,16.80
2016,08,12,07,03,16.90
2016,08,12,07,04,16.90
2016,08,12,07,05,16.90
2016,08,12,07,06,17.00
2016,08,12,07,07,17.00
2016,08,12,07,08,17.00
2016,08,12,07,09,17.10
2016,08,12,07,10,17.10
2016,08,12,07,11,17.20
2016,08,12,07,12,17.20
2016,08,12,07,13,17.20
2016,08,12,07,14,17.30
2016,08,12,07,15,17.30
2016,08,12,07,16,17.30
2016,08,12,07,17,17.30
2016,08,12,07,18,17.30
2016,08,12,07,19,17.40
2016,08,12,07,20,17.40
2016,08,12,07,21,17.50
2016,08,12,07,22,17.50
2016,08,12,07,23,17.50
2016,08,12,07,24,17.60
2016,08,12,07,25,17.60
2016,08,12,07,26,17.70
2016,08,12,07,27,17.70
2016,08,12,07,28,17.80
2016,08,12,07,29,17.80
2016,08,12,07,30,17.90
2016,08,12,07,31,17.90
2016,08,12,07,32,17.90
2016,08,12,07,33,18.00
2016,08,12,07,34,18.10
2016,08,12,07,35,18.20
2016,08,12,07,36,18.20
2016,08,12,07,37,18.20
2016,08,12,07,38,18.20
2016,08,12,07,39,18.20
2016,08,12,07,40,18.20
2016,08,12,07,41,18.30
2016,08,12,07,42,18.30
2016,08,12,07,43,18.30
2016,08,12,07,44,18.30
2016,08,12,07,45,18.30
2016,08,12,07,46,18.30
2016,08,12,07,47,18.40
2016,08,12,07,48,18.40
2016,08,12,07,49,18.40
2016,08,12,07,50,18.40
2016,08,12,07,51,18.40
2016,08,12,07,52,18.40
2016,08,12,07,53,18.40
2016,08,12,07,54,18.40
2016,08,12,07,55,18.40
2016,08,12,07,56,18.40
2016,08,12,07,57,18.40
2016,08,12,07,58,18.40
2016,08,12,07,59,18.30
2016,08,12,08,00,18.30
2016,08,12,08,01,18.30
2016,08,12,08,02,18.40
2016,08,12,08,03,18.40
2016,08,12,08,04,18.40
2016,08,12,08,05,18.40
2016,08,12,08,06,18.40
2016,08,12,08,07,18.40
2016,08,12,08,08,18.50
2016,08,12,08,09,18.50
2016,08,12,08,10,18.50
2016,08,12,08,11,18.60
2016,08,12,08,12,18.60
2016,08,12,08,13,18.70
2016,08,12,08,14,18.70
2016,08,12,08,15,18.70
2016,08,12,08,16,18.80
2016,08,12,08,17,18.90
2016,08,12,08,18,18.90
2016,08,12,08,19,18.90
2016,08,12,08,20,19.00
2016,08,12,08,21,19.10
2016,08,12,08,22,19.10
2016,08,12,08,23,19.10
2016,08,12,08,24,19.10
2016,08,12,08,25,19.20
2016,08,12,08,26,19.20
2016,08,12,08,27,19.20
2016,08,12,08,28,19.30
2016,08,12,08,29,19.30
2016,08,12,08,30,19.30
2016,08,12,08,31,19.40
2016,08,12,08,32,19.40
2016,08,12,08,33,19.40
2016,08,12,08,34,19.40
2016,08,12,08,35,19.40
2016,08,12,08,36,19.50
2016,08,12,08,37,19.50
2016,08,12,08,38,19.50
2016,08,12,08,39,19.50
2016,08,12,08,40,19.50
2016,08,12,08,41,19.50
2016,08,12,08,42,19.50
2016,08,12,08,43,19.50
2016,08,12,08,44,19.50
2016,08,12,08,45,19.40
2016,08,12,08,46,19.40
2016,08,12,08,47,19.50
2016,08,12,08,48,19.50
2016,08,12,08,49,19.50
2016,08,12,08,50,19.50
2016,08,12,08,51,19.50
2016,08,12,08,52,19.60
2016,08,12,08,53,19.60
2016,08,12,08,54,19.60
2016,08,12,08,55,19.60
2016,08,12,08,56,19.60
2016,08,12,08,57,19.60
2016,08,12,08,58,19.70
2016,08,12,08,59,19.60
2016,08,12,09,00,19.60
2016,08,12,09,01,19.60
2016,08,12,09,02,19.70
2016,08,12,09,03,19.70
2016,08,12,09,04,19.70
2016,08,12,09,05,19.80
2016,08,12,09,06,19.80
2016,08,12,09,07,19.80
2016,08,12,09,08,19.80
2016,08,12,09,09,19.80
2016,08,12,09,10,19.90
2016,08,12,09,11,19.90
2016,08,12,09,12,19.90
2016,08,12,09,13,20.00
2016,08,12,09,14,20.10
2016,08,12,09,15,20.20
2016,08,12,09,16,20.20
2016,08,12,09,17,20.20
2016,08,12,09,18,20.30
2016,08,12,09,19,20.30
2016,08,12,09,20,20.40
2016,08,12,09,21,20.40
2016,08,12,09,22,20.40
2016,08,12,09,23,20.40
2016,08,12,09,24,20.40
2016,08,12,09,25,20.40
2016,08,12,09,26,20.40
2016,08,12,09,27,20.40
2016,08,12,09,28,20.40
2016,08,12,09,29,20.50
2016,08,12,09,30,20.50
2016,08,12,09,31,20.50
2016,08,12,09,32,20.50
2016,08,12,09,33,20.50
2016,08,12,09,34,20.50
2016,08,12,09,35,20.40
2016,08,12,09,36,20.40
2016,08,12,09,37,20.40
2016,08,12,09,38,20.40
2016,08,12,09,39,20.40
2016,08,12,09,40,20.30
2016,08,12,09,41,20.30
2016,08,12,09,42,20.30
2016,08,12,09,43,20.30
2016,08,12,09,44,20.30
2016,08,12,09,45,20.40
2016,08,12,09,46,20.40
2016,08,12,09,47,20.50
2016,08,12,09,48,20.50
2016,08,12,09,49,20.60
2016,08,12,09,50,20.60
2016,08,12,09,51,20.60
2016,08,12,09,52,20.60
2016,08,12,09,53,20.60
2016,08,12,09,54,20.50
2016,08,12,09,55,20.50
2016,08,12,09,56,20.40
2016,08,12,09,57,20.40
2016,08,12,09,58,20.30
2016,08,12,09,59,20.30
2016,08,12,10,00,20.20
2016,08,12,10,01,20.20
2016,08,12,10,02,20.20
2016,08,12,10,03,20.20
2016,08,12,10,04,20.20
2016,08,12,10,05,20.10
2016,08,12,10,06,20.10
2016,08,12,10,07,20.10
2016,08,12,10,08,20.10
2016,08,12,10,09,20.10
2016,08,12,10,10,20.10
2016,08,12,10,11,20.10
2016,08,12,10,12,20.20
2016,08,12,10,13,20.20
2016,08,12,10,14,20.20
2016,08,12,10,15,20.10
2016,08,12,10,16,20.10
2016,08,12,10,17,20.10
2016,08,12,10,18,20.10
2016,08,12,10,19,20.10
2016,08,12,10,20,20.10
2016,08,12,10,21,20.10
2016,08,12,10,22,20.10
2016,08,12,10,23,20.10
2016,08,12,10,24,20.10
2016,08,12,10,25,20.20
2016,08,12,10,26,20.20
2016,08,12,10,27,20.30
2016,08,12,10,28,20.40
2016,08,12,10,29,20.50
2016,08,12,10,30,20.70
2016,08,12,10,31,20.80
2016,08,12,10,32,20.80
2016,08,12,10,33,20.90
2016,08,12,10,34,20.90
2016,08,12,10,35,21.00
2016,08,12,10,36,21.00
2016,08,12,10,37,21.10
2016,08,12,10,38,21.20
2016,08,12,10,39,21.10
2016,08,12,10,40,21.10
2016,08,12,10,41,21.10
2016,08,12,10,42,21.10
2016,08,12,10,43,21.00
2016,08,12,10,44,21.10
2016,08,12,10,45,21.10
2016,08,12,10,46,21.10
2016,08,12,10,47,21.20
2016,08,12,10,48,21.20
2016,08,12,10,49,21.30
2016,08,12,10,50,21.30
2016,08,12,10,51,21.30
2016,08,12,10,52,21.30
2016,08,12,10,53,21.30
2016,08,12,10,54,21.30
2016,08,12,10,55,21.30
2016,08,12,10,56,21.30
2016,08,12,10,57,21.30
2016,08,12,10,58,21.30
2016,08,12,10,59,21.30
2016,08,12,11,00,21.40
2016,08,12,11,01,21.50
2016,08,12,11,02,21.60
2016,08,12,11,03,21.60
2016,08,12,11,04,21.60
2016,08,12,11,05,21.60
2016,08,12,11,06,21.60
2016,08,12,11,07,21.70
2016,08,12,11,08,21.80
2016,08,12,11,09,21.80
2016,08,12,11,10,21.80
2016,08,12,11,11,21.80
2016,08,12,11,12,21.70
2016,08,12,11,13,21.80
2016,08,12,11,14,21.80
2016,08,12,11,15,21.80
2016,08,12,11,16,21.90
2016,08,12,11,17,22.00
2016,08,12,11,18,22.00
2016,08,12,11,19,22.10
2016,08,12,11,20,22.20
2016,08,12,11,21,22.20
2016,08,12,11,22,22.30
2016,08,12,11,23,22.30
2016,08,12,11,24,22.40
2016,08,12,11,25,22.40
2016,08,12,11,26,22.50
2016,08,12,11,27,22.50
2016,08,12,11,28,22.60
2016,08,12,11,29,22.60
2016,08,12,11,30,22.60
2016,08,12,11,31,22.70
2016,08,12,11,32,22.70
2016,08,12,11,33,22.80
2016,08,12,11,34,22.80
2016,08,12,11,35,22.90
2016,08,12,11,36,22.90
2016,08,12,11,37,23.10
2016,08,12,11,38,23.10
2016,08,12,11,39,22.90
2016,08,12,11,40,22.90
2016,08,12,11,41,22.90
2016,08,12,11,42,22.90
2016,08,12,11,43,22.90
2016,08,12,11,44,23.00
2016,08,12,11,45,23.10
2016,08,12,11,46,23.20
2016,08,12,11,47,23.20
2016,08,12,11,48,23.20
2016,08,12,11,49,23.00
2016,08,12,11,50,22.90
2016,08,12,11,51,22.90
2016,08,12,11,52,22.90
2016,08,12,11,53,22.90
2016,08,12,11,54,23.00
2016,08,12,11,55,23.10
2016,08,12,11,56,23.20
2016,08,12,11,57,23.20
2016,08,12,11,58,23.20
2016,08,12,11,59,23.20
2016,08,12,12,00,23.20
2016,08,12,12,01,23.00
2016,08,12,12,02,22.90
2016,08,12,12,03,22.90
2016,08,12,12,04,22.90
2016,08,12,12,05,22.90
2016,08,12,12,06,22.90
2016,08,12,12,07,23.00
2016,08,12,12,08,23.00
2016,08,12,12,09,23.10
2016,08,12,12,10,23.10
2016,08,12,12,11,23.20
2016,08,12,12,12,23.30
2016,08,12,12,13,23.20
2016,08,12,12,14,23.20
2016,08,12,12,15,23.20
2016,08,12,12,16,23.20
2016,08,12,12,17,23.20
2016,08,12,12,18,23.30
2016,08,12,12,19,23.30
2016,08,12,12,20,23.30
2016,08,12,12,21,23.40
2016,08,12,12,22,23.40
2016,08,12,12,23,23.40
2016,08,12,12,24,23.40
2016,08,12,12,25,23.60
2016,08,12,12,26,23.60
2016,08,12,12,27,23.60
2016,08,12,12,28,23.60
2016,08,12,12,29,23.60
2016,08,12,12,30,23.60
2016,08,12,12,31,23.60
2016,08,12,12,32,23.70
2016,08,12,12,33,23.70
2016,08,12,12,34,23.70
2016,08,12,12,35,23.70
2016,08,12,12,36,23.60
2016,08,12,12,37,23.70
2016,08,12,12,38,23.70
2016,08,12,12,39,23.70
2016,08,12,12,40,23.70
2016,08,12,12,41,23.70
2016,08,12,12,42,23.70
2016,08,12,12,43,23.70
2016,08,12,12,44,23.70
2016,08,12,12,45,23.70
2016,08,12,12,46,23.70
2016,08,12,12,47,23.70
2016,08,12,12,48,23.70
2016,08,12,12,49,23.80
2016,08,12,12,50,23.80
2016,08,12,12,51,23.90
2016,08,12,12,52,23.90
2016,08,12,12,53,24.00
2016,08,12,12,54,24.00
2016,08,12,12,55,23.90
2016,08,12,12,56,24.00
2016,08,12,12,57,24.10
2016,08,12,12,58,24.20
2016,08,12,12,59,24.20
2016,08,12,13,00,24.20
2016,08,12,13,01,24.10
2016,08,12,13,02,24.10
2016,08,12,13,03,24.20
2016,08,12,13,04,24.20
2016,08,12,13,05,24.20
2016,08,12,13,06,24.30
2016,08,12,13,07,24.30
2016,08,12,13,08,24.30
2016,08,12,13,09,24.30
2016,08,12,13,10,24.20
2016,08,12,13,11,24.30
2016,08,12,13,12,24.30
2016,08,12,13,13,24.40
2016,08,12,13,14,24.40
2016,08,12,13,15,24.50
2016,08,12,13,16,24.50
2016,08,12,13,17,24.50
2016,08,12,13,18,24.50
2016,08,12,13,19,24.50
2016,08,12,13,20,24.50
2016,08,12,13,21,24.50
2016,08,12,13,22,24.50
2016,08,12,13,23,24.50
2016,08,12,13,24,24.60
2016,08,12,13,25,24.70
2016,08,12,13,26,24.70
2016,08,12,13,27,24.70
2016,08,12,13,28,24.80
2016,08,12,13,29,24.80
2016,08,12,13,30,24.80
2016,08,12,13,31,24.90
2016,08,12,13,32,24.90
2016,08,12,13,33,24.90
2016,08,12,13,34,25.00
2016,08,12,13,35,25.00
2016,08,12,13,36,25.00
2016,08,12,13,37,25.00
2016,08,12,13,38,25.00
2016,08,12,13,39,25.10
2016,08,12,13,40,25.10
2016,08,12,13,41,25.10
2016,08,12,13,42,25.00
2016,08,12,13,43,25.10
2016,08,12,13,44,25.20
2016,08,12,13,45,25.30
2016,08,12,13,46,25.30
2016,08,12,13,47,25.40
2016,08,12,13,48,25.40
2016,08,12,13,49,25.40
2016,08,12,13,50,25.40
2016,08,12,13,51,25.40
2016,08,12,13,52,25.30
2016,08,12,13,53,25.20
2016,08,12,13,54,25.20
2016,08,12,13,55,25.20
2016,08,12,13,56,25.20
2016,08,12,13,57,25.20
2016,08,12,13,58,25.30
2016,08,12,13,59,25.40
2016,08,12,14,00,25.40
2016,08,12,14,01,25.50
2016,08,12,14,02,25.60
2016,08,12,14,03,25.70
2016,08,12,14,04,25.80
2016,08,12,14,05,25.80
2016,08,12,14,06,25.70
2016,08,12,14,07,25.60
2016,08,12,14,08,25.60
2016,08,12,14,09,25.70
2016,08,12,14,10,25.80
2016,08,12,14,11,25.80
2016,08,12,14,12,25.80
2016,08,12,14,13,25.80
2016,08,12,14,14,25.80
2016,08,12,14,15,25.70
2016,08,12,14,16,25.70
2016,08,12,14,17,25.60
2016,08,12,14,18,25.60
2016,08,12,14,19,25.70
2016,08,12,14,20,25.80
2016,08,12,14,21,25.90
2016,08,12,14,22,26.00
2016,08,12,14,23,26.00
2016,08,12,14,24,25.90
2016,08,12,14,25,25.80
2016,08,12,14,26,25.70
2016,08,12,14,27,25.70
2016,08,12,14,28,25.60
2016,08,12,14,29,25.50
2016,08,12,14,30,25.40
2016,08,12,14,31,25.40
2016,08,12,14,32,25.30
2016,08,12,14,33,25.30
2016,08,12,14,34,25.30
2016,08,12,14,35,25.30
2016,08,12,14,36,25.30
2016,08,12,14,37,25.30
2016,08,12,14,38,25.40
2016,08,12,14,39,25.40
2016,08,12,14,40,25.60
2016,08,12,14,41,25.70
2016,08,12,14,42,25.80
2016,08,12,14,43,25.80
2016,08,12,14,44,25.80
2016,08,12,14,45,25.90
2016,08,12,14,46,25.90
2016,08,12,14,47,25.90
2016,08,12,14,48,25.90
2016,08,12,14,49,25.90
2016,08,12,14,50,25.90
2016,08,12,14,51,25.90
2016,08,12,14,52,25.90
2016,08,12,14,53,25.90
2016,08,12,14,54,25.90
2016,08,12,14,55,25.90
2016,08,12,14,56,25.90
2016,08,12,14,57,25.90
2016,08,12,14,58,25.90
2016,08,12,14,59,25.90
2016,08,12,15,00,25.90
2016,08,12,15,01,25.90
2016,08,12,15,02,25.90
2016,08,12,15,03,26.00
2016,08,12,15,04,26.00
2016,08,12,15,05,26.00
2016,08,12,15,06,26.00
2016,08,12,15,07,26.10
2016,08,12,15,08,26.10
2016,08,12,15,09,26.20
2016,08,12,15,10,26.10
2016,08,12,15,11,26.00
2016,08,12,15,12,26.00
2016,08,12,15,13,26.00
2016,08,12,15,14,25.90
2016,08,12,15,15,25.90
2016,08,12,15,16,25.90
2016,08,12,15,17,26.00
2016,08,12,15,18,25.90
2016,08,12,15,19,25.90
2016,08,12,15,20,25.80
2016,08,12,15,21,25.70
2016,08,12,15,22,25.70
2016,08,12,15,23,25.70
2016,08,12,15,24,25.80
2016,08,12,15,25,25.80
2016,08,12,15,26,25.80
2016,08,12,15,27,25.90
2016,08,12,15,28,25.90
2016,08,12,15,29,26.00
2016,08,12,15,30,26.00
2016,08,12,15,31,26.10
2016,08,12,15,32,26.10
2016,08,12,15,33,26.20
2016,08,12,15,34,26.30
2016,08,12,15,35,26.40
2016,08,12,15,36,26.50
2016,08,12,15,37,26.60
2016,08,12,15,38,26.60
2016,08,12,15,39,26.70
2016,08,12,15,40,26.80
2016,08,12,15,41,26.90
2016,08,12,15,42,27.00
2016,08,12,15,43,27.10
2016,08,12,15,44,27.10
2016,08,12,15,45,27.10
2016,08,12,15,46,27.10
2016,08,12,15,47,27.10
2016,08,12,15,48,27.10
2016,08,12,15,49,27.00
2016,08,12,15,50,26.90
2016,08,12,15,51,26.90
2016,08,12,15,52,26.80
2016,08,12,15,53,26.70
2016,08,12,15,54,26.70
2016,08,12,15,55,26.60
2016,08,12,15,56,26.60
2016,08,12,15,57,26.60
2016,08,12,15,58,26.60
2016,08,12,15,59,26.70
2016,08,12,16,00,26.80
2016,08,12,16,01,26.80
2016,08,12,16,02,26.80
2016,08,12,16,03,26.80
2016,08,12,16,04,26.90
2016,08,12,16,05,26.90
2016,08,12,16,06,27.00
2016,08,12,16,07,27.10
2016,08,12,16,08,27.10
2016,08,12,16,09,27.10
2016,08,12,16,10,27.20
2016,08,12,16,11,27.20
2016,08,12,16,12,27.30
2016,08,12,16,13,27.30
2016,08,12,16,14,27.30
2016,08,12,16,15,27.30
2016,08,12,16,16,27.30
2016,08,12,16,17,27.30
2016,08,12,16,18,27.30
2016,08,12,16,19,27.30
2016,08,12,16,20,27.20
2016,08,12,16,21,27.20
2016,08,12,16,22,27.20
2016,08,12,16,23,27.30
2016,08,12,16,24,27.30
2016,08,12,16,25,27.40
2016,08,12,16,26,27.60
2016,08,12,16,27,27.70
2016,08,12,16,28,27.70
2016,08,12,16,29,27.70
2016,08,12,16,30,27.70
2016,08,12,16,31,27.80
2016,08,12,16,32,27.80
2016,08,12,16,33,27.80
2016,08,12,16,34,27.90
2016,08,12,16,35,28.00
2016,08,12,16,36,28.00
2016,08,12,16,37,28.00
2016,08,12,16,38,28.00
2016,08,12,16,39,27.90
2016,08,12,16,40,27.70
2016,08,12,16,41,27.70
2016,08,12,16,42,27.60
2016,08,12,16,43,27.50
2016,08,12,16,44,27.40
2016,08,12,16,45,27.30
2016,08,12,16,46,27.30
2016,08,12,16,47,27.30
2016,08,12,16,48,27.30
2016,08,12,16,49,27.30
2016,08,12,16,50,27.30
2016,08,12,16,51,27.30
2016,08,12,16,52,27.20
2016,08,12,16,53,27.30
2016,08,12,16,54,27.30
2016,08,12,16,55,27.30
2016,08,12,16,56,27.30
2016,08,12,16,57,27.40
2016,08,12,16,58,27.40
2016,08,12,16,59,27.50
2016,08,12,17,00,27.60
2016,08,12,17,01,27.70
2016,08,12,17,02,27.80
2016,08,12,17,03,27.80
2016,08,12,17,04,27.80
2016,08,12,17,05,27.80
2016,08,12,17,06,27.80
2016,08,12,17,07,27.80
2016,08,12,17,08,27.80
2016,08,12,17,09,27.90
2016,08,12,17,10,27.90
2016,08,12,17,11,27.90
2016,08,12,17,12,28.00
2016,08,12,17,13,28.00
2016,08,12,17,14,28.10
2016,08,12,17,15,28.20
2016,08,12,17,16,28.20
2016,08,12,17,17,28.30
2016,08,12,17,18,28.30
2016,08,12,17,19,28.30